Location: Unspecified
(50.7693°N, 0.0000°E)
Time: 05:53:43
(UTC+00:00)

SR - Pass Details

Date: 28 June 2019
Orbit: 575 x 881 km, 66.7° (Epoch: 12 October)

Event Time Altitude Azimuth Distance (km) Brightness Sun altitude
Rises 06:44:12 0° 311° (NW) 2,871 ? 24.2°
Reaches altitude 10° 06:48:12 10° 347° (NNW) 2,029 ? 24.8°
Maximum altitude 06:49:32 11° 5° (N) 1,979 ? 25.0°
Drops below altitude 10° 06:50:54 10° 22° (NNE) 2,077 ? 25.2°
Sets 06:55:12 0° 57° (ENE) 3,080 ? 25.9°
